Current weather by "City, St" or "zip code"  
 
Advertise Here

Current Conditions: Okeechobee County Airport, FL

Fair


66.0 F

Last Updated on Feb 28 2021, 6:55 am EST
Humidity: 94%
Wind Speed: SE 4.6 mph
Barometer 30.19 in
Dewpoint: 64.4 F
Visibility: 10.00 mi
Precip: --
Heat Index: NA
Wind Chill: NA
Current conditions at:

Okeechobee County Airport, FL (KOBE)

Lat: 27.2628 Lon: 80.8498

Local Radar Image active severe weather and emergency alerts image image weather storm and storm spotter reports image weather observation monitoring service image
Local
Radar
Active
Alerts
Storm Reports Obs
Monitoring

Sign-up For Email & Text Message Weather Alert Notification Services


Advertise Here

Observation History for Okeechobee County Airport, FL


Time Wind
(mph)
Vis
(mi)
Weather Precip (in) Temperature (F) Relative
Humidity
Wind
Chill
(F)
Heat
Index
(F)
Pressure
Air Dwpt altimeter
(in)
sea level
(mb)
Rmks
6:55 am EST SE 4.6 10.00 Fair -- 66.0 64.4 94% NA NA 30.19 M
5:55 am EST N 0.0 7.00 Fair -- 64.0 64.4 100% NA NA 30.17 M
4:55 am EST N 0.0 7.00 Fair -- 64.0 64.4 100% NA NA 30.17 M
3:55 am EST N 0.0 10.00 Fair -- 66.0 64.4 94% NA NA 30.17 M
2:55 am EST N 0.0 7.00 Fair -- 66.0 64.4 94% NA NA 30.19 M
1:55 am EST N 0.0 7.00 Fair -- 64.0 64.4 100% NA NA 30.20 M
12:55 am EST N 0.0 10.00 Fair -- 66.0 64.4 94% NA NA 30.22 M
11:55 pm EST N 0.0 10.00 Fair -- 66.0 64.4 94% NA NA 30.23 M
10:55 pm EST N 0.0 10.00 Fair -- 70.0 64.4 83% NA NA 30.23 M
9:55 pm EST N 0.0 10.00 Fair -- 70.0 64.4 83% NA NA 30.23 M
8:55 pm EST N 0.0 10.00 Fair -- 70.0 64.4 83% NA NA 30.21 M
7:55 pm EST N 0.0 10.00 Fair -- 72.0 64.4 78% NA NA 30.19 M
6:55 pm EST E 5.8 10.00 Fair -- 75.0 64.4 69% NA NA 30.18 M
5:55 pm EST SE 6.9 10.00 Fair -- 79.0 59.0 51% NA NA 30.16 M
4:55 pm EST SE 10.4 10.00 Fair -- 82.0 59.0 45% NA 82 30.15 M
3:55 pm EST S 11.5 10.00 Fair -- 82.0 59.0 45% NA 82 30.15 M
2:55 pm EST S 10.4 G 17.3 10.00 Fair -- 84.0 62.6 48% NA 85 30.15 M
1:55 pm EST S 10.4 10.00 Fair -- 84.0 62.6 48% NA 85 30.17 M
1:35 pm EST SE 6.9 10.00 Fair -- 86.0 64.4 49% NA 87 30.18 M
12:55 pm EST S 12.7 G 16.1 10.00 Fair -- 82.0 64.4 55% NA 83 30.20 M
11:55 am EST S 8.1 10.00 Fair -- 81.0 66.2 62% NA 83 30.22 M
10:55 am EST S 8.1 G 17.3 10.00 Fair -- 81.0 68.0 66% NA 84 30.23 M
9:55 am EST SE 4.6 10.00 Mostly Cloudy -- 77.0 68.0 74% NA NA 30.23 M
8:55 am EST N 0.0 10.00 Fair -- 73.0 68.0 83% NA NA 30.22 M

Regional Weather Observation


Sebring Regional Airport, FL (KSEF)

Fair
68.0 F

Sebastian Municipal Airport, FL (KX26)

Fair
72.0 F

Lake Wales Municipal Airport, FL (KX07)

Fog/Mist
66.0 F

Vero Beach, Vero Beach Municipal Airport, FL (KVRB)

Fair
73.0 F

Fort Pierce, St. Lucie County International Airport, FL (KFPR)

Fair
73.0 F

Bartow Municipal, FL (KBOW)

Light Unknown Precip
66.0 F
Advertise Here

Advertise Here